Overview Statistics Trail Chart Weather Telemetry Raw packets
 

This is the latest recevied weather packets stored in our database for station/object K5BOU. If no packets are shown the sender has not sent any weather packets the latest 10 day(s).

<< 1 2 3 4 5 6 >>
Time Temp. Humidity Pressure Rain* Wind** Luminosity Snow
1788658815 28.89° C 91% 1009.5 hPa 0 mm - 0 W/m² -
1788658510 28.89° C 91% 1009.6 hPa 0 mm - 0 W/m² -
1788658206 28.89° C 90% 1009.6 hPa 0 mm - 0 W/m² -
1788657901 28.89° C 90% 1009.6 hPa 0 mm - 0 W/m² -
1788657600 28.89° C 90% 1009.6 hPa 0 mm - 0 W/m² -
1788657296 28.89° C 89% 1009.5 hPa 0 mm - 0 W/m² -
1788656991 29.44° C 89% 1009.5 hPa 0 mm - 0 W/m² -
1788656686 29.44° C 89% 1009.6 hPa 0 mm - 0 W/m² -
1788656383 29.44° C 88% 1009.6 hPa 0 mm - 0 W/m² -
1788656082 29.44° C 87% 1009.6 hPa 0 mm - 0 W/m² -
1788655780 29.44° C 87% 1009.7 hPa 0 mm - 0 W/m² -
1788655474 30° C 86% 1009.5 hPa 0 mm - 0 W/m² -
1788655171 30° C 84% 1009.6 hPa 0 mm - 1 W/m² -
1788654871 30° C 84% 1009.4 hPa 0 mm - 3 W/m² -
1788654566 30° C 83% 1009.6 hPa 0 mm - 3 W/m² -
1788654265 30° C 83% 1009.7 hPa 0 mm - 3 W/m² -
1788653960 30° C 83% 1009.7 hPa 0 mm - 4 W/m² -
1788653656 30° C 84% 1009.5 hPa 0 mm - 6 W/m² -
1788653351 30.56° C 84% 1009.6 hPa 0 mm - 7 W/m² -
1788653046 30.56° C 84% 1009.6 hPa 0 mm - 9 W/m² -
1788652741 30.56° C 83% 1009.6 hPa 0 mm - 12 W/m² -
1788652435 30.56° C 83% 1009.4 hPa 0 mm - 16 W/m² -
1788652130 30.56° C 83% 1009.8 hPa 0 mm - 23 W/m² -
1788651826 30.56° C 83% 1009.9 hPa 0 mm - 32 W/m² -
1788651521 31.11° C 84% 1009.9 hPa 0 mm - 48 W/m² -

* Rain latest hour (hover to see other rain measurements)
** Current wind speed in m/s (hover to see current wind gust speed)